Mankato, MN

4:24 AM CDT on October 15, 2019 (GMT -0500)
Mankato Regional

Weather History for KMKT - May, 2019

Change the Weather History Date:

Thursday, May 30, 2019

  Actual Average Record
Temperature  
Mean Temperature 66 °F -  
Max Temperature 78 °F 68 °F 89 °F (2002)
Min Temperature 55 °F 51 °F 44 °F (1997)
Cooling Degree Days 2    
Growing Degree Days 16 (Base 50)    
Moisture  
Dew Point 52 °F    
Average Humidity 63    
Maximum Humidity 87    
Minimum Humidity 40    
Precipitation  
Precipitation 0.00 in - - ()
Sea Level Pressure  
Sea Level Pressure 29.78 in    
Wind  
Wind Speed 4 mph (WSW)    
Max Wind Speed 8 mph    
Max Gust Speed -    
Visibility 10 miles    
Events      
Averages and records for this station are not official NWS values.
T = Trace of Precipitation, MM = Missing Value Source: NWS Daily Summary

Daily Weather History Graph

Daily Weather History Graph

Search for Another Location

Airport or City:

Astronomy

May. 30, 2019 Rise Set
Actual Time 5:36 AM CDT 8:50 PM CDT
Civil Twilight 5:00 AM CDT 9:26 PM CDT
Nautical Twilight 4:15 AM CDT 10:11 PM CDT
Astronomical Twilight 3:19 AM CDT 11:08 PM CDT
Moon 3:54 AM CDT (5/30) 4:48 PM CDT (5/30)
Length of Visible Light 16h 25m
Length of Day
15h 14m
Waning Crescent, 15% of the Moon is Illuminated
May 30
Waning Crescent
Jun 3
New
Jun 10
First Quarter
Jun 17
Full
Jun 25
Last Quarter

Hourly Weather History & Observations

Time (CDT) Temp. Dew Point Humidity Pressure Visibility Wind Dir Wind Speed Gust Speed Precip Events Conditions
12:56 AM 61.0 °F 52.0 °F 72% 29.72 in 10.0 mi SE 5.8 mph - N/A   Clear
1:56 AM 55.9 °F 52.0 °F 87% 29.73 in 10.0 mi NNE 3.5 mph - N/A   Clear
2:56 AM 57.0 °F 52.0 °F 83% 29.73 in 10.0 mi Calm Calm - N/A   Mostly Cloudy
3:56 AM 57.0 °F 50.0 °F 77% 29.73 in 10.0 mi NNE 5.8 mph - N/A   Clear
4:56 AM 55.0 °F 50.0 °F 83% 29.74 in 10.0 mi NNE 4.6 mph - N/A   Clear
5:56 AM 55.9 °F 50.0 °F 80% 29.76 in 10.0 mi ENE 3.5 mph - N/A   Clear
6:56 AM 60.1 °F 52.0 °F 75% 29.77 in 10.0 mi NE 3.5 mph - N/A   Clear
7:56 AM 60.1 °F 53.1 °F 78% 29.77 in 10.0 mi Calm Calm - N/A   Clear
8:56 AM 61.0 °F 53.1 °F 75% 29.79 in 10.0 mi Calm Calm - N/A   Clear
9:56 AM 64.0 °F 55.9 °F 75% 29.80 in 10.0 mi Calm Calm - N/A   Clear
10:56 AM 68.0 °F 53.1 °F 59% 29.80 in 10.0 mi Calm Calm - N/A   Clear
11:56 AM 70.0 °F 51.1 °F 51% 29.80 in 10.0 mi West 4.6 mph - N/A   Clear
12:56 PM 72.0 °F 52.0 °F 49% 29.80 in 10.0 mi Variable 4.6 mph - N/A   Clear
1:56 PM 73.9 °F 53.1 °F 48% 29.81 in 10.0 mi West 5.8 mph - N/A   Clear
2:56 PM 75.0 °F 52.0 °F 44% 29.81 in 10.0 mi Variable 5.8 mph - N/A   Clear
3:56 PM 77.0 °F 51.1 °F 40% 29.80 in 10.0 mi West 5.8 mph - N/A   Clear
4:56 PM 78.1 °F 52.0 °F 40% 29.80 in 10.0 mi West 8.1 mph - N/A   Clear
7:56 PM 75.0 °F 54.0 °F 48% 29.81 in 10.0 mi SW 6.9 mph - N/A   Clear
8:56 PM 73.0 °F 53.1 °F 49% 29.81 in 10.0 mi SSW 6.9 mph - N/A   Clear
9:56 PM 70.0 °F 53.1 °F 55% 29.82 in 10.0 mi SSW 6.9 mph - N/A   Clear
10:56 PM 68.0 °F 53.1 °F 59% 29.83 in 10.0 mi SSW 8.1 mph - N/A   Clear
11:56 PM 66.9 °F 54.0 °F 63% 29.83 in 10.0 mi SSW 6.9 mph - N/A   Clear